Theta_e
318 319 319 321 322 322 316 312 311 313 313 315 318 319 319 318 319 322 324 323 322 323 322 322 323 324 325 324 326 324 323 325 324 326 326 325 327 325 325 322 322 323 325 322 320 322 322 318 320 322 323 318 324 324
320 320 320 321 322 321 317 312 310 310 312 313 316 318 320 318 318 319 322 322 322 322 322 321 324 323 323 323 324 322 322 324 323 325 323 322 324 322 322 326 317 325 322 324 322 323 317 319 319 318 318 321 320 324
322 321 321 321 322 321 320 316 310 309 309 310 313 317 319 319 319 319 320 321 323 324 323 322 324 324 323 323 322 324 324 322 321 319 320 320 324 319 323 321 322 319 314 322 322 322 322 322 320 319 319 319 319 321
323 322 321 322 322 321 320 315 310 309 309 309 311 317 318 319 319 319 321 321 321 322 325 324 324 323 323 323 322 322 322 322 321 319 317 319 322 314 319 319 321 319 318 322 321 320 321 321 319 319 319 319 320 320
324 322 322 322 322 321 320 316 310 309 309 309 311 316 318 319 319 319 321 322 322 320 323 324 324 322 322 323 322 320 320 319 318 319 321 322 316 317 313 316 320 318 323 322 320 323 323 323 320 319 319 320 320 320
324 323 323 322 322 321 319 313 309 309 309 309 310 316 317 319 319 319 322 322 322 320 318 325 324 323 322 322 322 320 320 320 319 320 318 316 316 318 321 322 320 319 319 319 322 319 319 319 319 319 319 320 321 320
323 323 323 323 322 321 317 311 309 309 309 309 309 314 316 318 319 321 323 322 321 318 320 326 324 322 322 322 322 320 320 320 320 318 320 319 318 317 320 322 321 319 320 320 319 320 321 320 321 319 319 319 320 320
323 323 323 323 322 320 315 310 309 308 309 309 310 312 315 318 319 318 320 320 318 317 320 326 325 322 321 323 323 321 320 320 319 318 317 319 318 318 323 322 318 320 321 321 321 320 319 320 318 317 318 319 320 320
324 324 323 322 322 319 312 310 309 309 310 311 313 314 317 319 319 321 321 320 318 317 325 324 326 325 321 321 321 320 320 323 318 322 319 318 321 323 324 323 319 320 321 321 320 319 318 318 316 316 316 318 320 320
323 324 323 322 322 317 311 309 308 309 311 316 316 319 319 319 321 321 319 318 317 317 317 323 322 326 321 320 322 322 319 323 323 321 318 321 323 322 320 320 320 320 320 320 319 320 319 318 317 315 316 318 319 320
323 324 323 322 321 313 309 308 308 310 316 318 320 321 322 321 320 319 321 322 319 321 320 323 323 325 320 323 324 320 322 322 325 323 324 324 325 323 320 320 320 321 320 320 320 320 319 318 316 316 315 316 317 319
322 322 322 322 318 310 309 308 309 314 317 319 321 321 320 319 320 321 321 320 322 323 320 324 324 323 321 320 324 319 323 322 324 320 324 326 325 320 321 321 321 322 322 321 321 320 320 317 316 315 314 314 314 314
321 321 322 321 312 309 308 308 309 316 319 320 320 320 320 318 317 322 323 324 324 321 321 321 323 322 322 320 322 322 324 324 320 325 325 325 323 321 321 321 323 320 320 320 319 319 318 316 316 315 315 315 314 314
321 321 321 315 310 309 308 308 310 317 319 319 320 313 320 321 320 321 322 322 321 320 320 321 322 321 320 324 322 324 322 322 325 325 324 325 322 323 322 322 321 320 320 319 318 318 317 316 316 315 314 315 315 315
320 319 313 310 309 308 307 307 310 318 319 319 320 320 320 319 319 319 320 320 321 320 321 322 323 321 322 323 322 322 324 324 324 324 324 323 323 323 322 322 322 321 321 319 318 317 316 316 315 315 314 315 315 314
316 311 309 309 308 307 306 308 312 317 319 319 318 319 320 320 322 321 322 322 322 322 322 323 325 326 325 322 324 324 323 324 323 324 323 324 324 323 323 323 322 318 319 319 318 317 317 316 313 314 314 315 316 317
311 311 309 308 307 305 308 312 314 315 317 317 317 317 317 318 320 321 322 323 322 323 327 325 326 324 322 325 325 324 324 324 322 323 324 324 324 323 323 323 319 319 319 318 317 317 317 315 315 315 315 317 318 318
309 310 308 307 305 309 312 313 315 315 315 316 317 317 317 318 320 321 322 322 323 323 323 325 322 326 326 326 326 324 322 321 324 324 324 324 324 323 321 320 317 318 319 319 316 317 318 318 316 317 315 317 319 319
310 308 305 305 309 311 312 313 315 314 315 315 316 316 316 317 318 320 320 320 320 322 322 323 326 326 325 324 327 325 323 325 324 324 325 325 323 321 320 319 318 317 318 318 317 318 318 316 315 316 318 319 319 319
306 304 307 310 311 312 312 313 314 314 315 315 315 316 316 317 317 317 318 318 322 324 324 325 324 324 324 323 322 322 323 325 324 324 323 325 325 323 321 320 317 318 317 318 317 316 317 318 319 319 318 319 319 320
302 308 310 310 311 312 313 313 314 313 313 314 315 315 317 318 319 319 319 317 322 325 325 324 324 323 323 323 323 323 323 323 323 324 325 323 323 324 324 324 323 317 316 315 316 318 319 319 318 318 319 321 321 316
307 308 309 310 310 311 312 314 316 317 317 318 318 319 319 320 321 321 320 320 321 321 322 324 324 324 324 324 323 324 323 323 323 323 324 325 324 324 324 324 324 322 315 314 317 319 319 317 317 320 321 323 322 320
307 308 309 310 311 311 311 314 316 317 319 320 320 322 323 322 321 320 323 322 321 320 320 320 321 322 322 323 323 323 323 324 324 324 324 324 325 325 324 324 324 324 324 314 315 318 317 317 319 321 323 322 322 321
308 309 310 311 310 311 312 314 314 317 319 320 322 324 324 324 322 323 323 323 321 321 320 320 320 321 321 321 322 322 322 323 323 324 324 324 325 324 325 324 324 324 324 317 314 314 317 319 321 324 322 321 321 321
311 311 311 309 311 312 314 315 317 319 319 320 321 322 324 323 327 327 327 326 324 325 325 325 324 322 322 323 323 323 323 324 324 324 324 324 325 324 324 324 323 323 322 319 318 319 321 324 324 324 323 321 318 318
309 311 310 312 313 313 314 316 316 318 319 320 321 321 323 326 327 326 326 324 326 325 325 326 327 325 324 324 325 325 326 326 325 324 324 325 325 325 325 324 324 323 324 322 323 325 325 325 323 321 321 319 318 318
310 312 311 311 312 313 314 314 314 317 320 320 321 324 326 327 327 326 325 323 322 323 326 326 327 327 328 327 326 326 327 326 326 325 325 326 326 326 325 325 324 325 325 326 326 326 325 324 321 321 321 321 321 320
311 311 314 313 313 313 315 316 318 320 319 320 323 325 325 326 328 324 324 322 322 323 324 326 327 327 327 327 327 326 326 325 326 327 327 327 327 325 325 325 325 324 326 326 326 325 324 322 320 320 321 321 321 321
310 311 312 313 314 315 315 316 317 318 320 321 323 323 324 324 323 324 323 322 322 323 324 325 325 326 326 328 328 328 327 327 327 326 325 327 329 326 325 324 324 326 326 325 323 322 322 322 323 324 322 321 321 321
310 310 312 313 315 317 317 317 317 316 317 318 320 320 321 321 320 321 321 322 323 323 323 324 325 325 325 327 328 328 328 328 328 328 328 328 328 327 325 325 326 326 324 323 322 322 321 321 321 322 322 322 321 320
311 311 312 313 316 317 318 317 318 317 318 319 319 319 319 320 320 321 322 323 323 323 323 324 324 325 326 326 325 326 326 326 327 327 327 327 326 326 326 326 323 322 322 322 322 322 322 322 321 320 318 317 317 317
311 313 315 318 317 317 316 316 317 318 318 318 318 318 319 320 321 320 322 323 322 322 322 322 324 325 326 325 325 325 325 325 326 326 326 326 326 326 326 325 323 322 322 322 322 321 319 317 317 317 317 317 317 316
313 314 314 314 317 318 319 319 319 320 321 321 321 320 319 319 321 322 323 323 323 323 323 323 325 325 325 325 324 324 324 325 325 325 325 326 325 323 323 322 322 322 321 321 319 315 316 316 315 314 314 314 314 314
Wind_Speed
22 20 18 17 17 16 13 11 11 11 9 8 8 6 4 4 4 4 4 9 9 5 6 3 5 5 6 5 4 7 2 4 3 5 2 2 1 2 2 1 1 3 4 2 2 2 3 8 7 4 1 5 16 19
23 20 18 17 16 15 13 11 11 11 10 8 7 6 5 4 4 4 4 8 10 4 5 9 6 4 3 5 5 6 2 2 2 4 1 2 2 2 3 4 1 3 1 2 4 1 1 9 2 6 4 3 9 16
24 21 18 17 15 14 12 11 10 10 8 8 7 6 5 4 3 3 4 8 7 4 7 2 0 2 2 5 5 2 3 2 3 3 4 2 2 2 3 3 3 2 3 1 3 3 2 5 7 5 6 6 8 12
27 22 19 17 15 14 11 10 11 10 8 7 7 6 5 4 3 2 2 6 6 3 2 1 1 1 1 2 5 2 3 5 7 4 4 2 1 3 2 2 1 1 7 4 1 3 4 9 12 9 9 10 10 12
28 23 19 17 16 14 11 10 9 8 7 6 5 7 5 4 3 3 3 1 5 4 3 5 2 2 2 0 2 4 4 4 3 2 1 2 3 4 1 1 3 6 4 3 2 6 2 2 3 10 14 13 11 12
28 23 21 17 16 13 10 9 9 8 6 6 5 7 5 4 3 2 2 2 3 6 3 2 2 2 3 3 2 4 5 3 3 2 3 2 3 0 2 2 1 8 7 4 1 3 10 3 5 5 8 13 12 11
29 26 20 17 16 13 10 8 8 7 6 5 5 6 6 4 5 3 1 1 3 3 2 4 3 2 3 1 2 2 3 3 2 3 2 2 2 3 2 3 5 9 9 9 8 3 1 3 2 3 4 7 9 10
30 27 21 19 16 13 10 9 7 6 5 5 5 4 5 5 5 4 5 2 3 1 1 2 3 2 4 2 2 2 2 2 3 1 2 2 4 2 3 7 5 7 7 6 7 6 2 2 1 4 6 6 11 14
31 28 23 21 16 13 11 9 7 5 5 5 4 4 4 4 4 4 5 3 4 3 1 2 2 1 4 3 3 2 2 2 1 2 2 2 2 4 5 9 10 10 8 8 9 9 7 4 3 2 4 5 11 12
31 29 26 22 17 13 13 9 7 6 6 6 7 4 4 5 5 4 2 2 3 4 5 4 3 2 4 3 2 3 1 1 2 1 0 3 4 11 12 9 7 7 14 11 13 9 8 5 3 1 4 4 5 6
30 30 27 22 17 16 13 10 8 9 9 8 5 3 4 6 4 2 2 2 2 3 5 4 7 2 5 3 3 1 2 1 2 2 2 1 2 3 6 12 12 8 14 11 9 5 6 5 3 1 1 1 1 4
30 30 27 21 19 17 14 12 10 12 9 8 5 6 5 3 2 2 1 1 3 3 4 4 5 6 2 3 2 2 2 2 2 1 2 2 2 3 4 9 10 8 8 9 8 6 6 7 4 3 4 3 2 0
30 30 25 21 21 17 15 13 13 13 11 8 4 4 3 3 2 4 5 3 3 4 5 6 5 4 3 2 3 2 2 2 2 2 2 3 2 1 9 12 8 8 8 3 4 5 9 6 5 4 4 4 4 3
31 30 25 23 21 18 15 14 15 16 11 3 4 0 4 4 4 4 3 2 3 2 5 6 4 3 2 2 1 2 2 2 2 2 3 1 3 2 11 10 8 9 6 2 5 7 7 6 5 4 5 5 5 5
34 29 27 24 21 19 16 14 18 18 6 3 3 4 6 5 5 4 5 6 4 3 5 6 4 3 1 3 0 2 3 3 3 2 1 4 5 10 11 10 7 6 5 6 7 7 7 6 4 5 6 5 5 3
35 31 27 25 22 19 16 17 20 14 2 3 4 3 4 2 4 3 5 8 5 6 8 3 3 2 1 3 3 4 2 4 2 3 1 6 6 10 8 7 5 4 6 6 8 8 5 3 3 5 4 2 3 5
35 25 29 25 22 19 19 20 10 6 5 3 4 7 7 4 6 3 2 1 3 6 3 3 4 4 3 3 3 3 3 1 2 5 8 4 11 9 7 5 4 6 6 8 11 8 3 4 4 5 5 5 8 11
26 28 28 25 23 22 19 9 6 5 5 6 5 3 9 8 5 4 2 2 0 3 5 3 6 4 4 5 3 4 8 7 5 5 6 8 13 10 7 6 5 6 7 10 11 9 6 5 6 6 8 10 14 16
28 30 27 26 26 14 7 8 5 4 7 4 7 10 8 6 10 11 9 8 8 6 3 5 3 4 4 4 4 5 8 8 4 4 3 8 10 9 8 7 6 5 7 9 10 9 8 9 10 11 12 15 19 20
27 28 30 29 21 6 5 4 7 3 4 4 6 7 7 6 7 9 9 9 6 5 4 4 5 7 8 14 18 16 12 10 9 10 10 12 12 10 8 6 5 6 9 11 9 9 10 11 10 11 15 18 19 13
31 32 29 22 7 4 4 4 4 4 2 4 4 5 4 7 8 10 10 14 9 5 6 11 14 16 16 14 9 8 9 9 11 12 11 7 12 12 10 9 8 10 12 12 12 11 12 13 12 13 13 15 14 13
30 28 21 12 2 3 2 5 3 2 3 2 3 5 4 4 5 6 9 10 9 17 17 19 22 20 19 19 18 15 14 14 14 13 13 13 10 8 8 7 10 13 13 15 14 14 14 14 13 13 15 17 14 13
27 19 10 4 2 2 2 4 2 3 3 2 3 3 3 4 3 5 5 7 13 24 26 27 28 27 26 23 24 22 20 19 17 16 15 13 13 13 11 11 10 13 15 16 17 16 16 15 15 18 20 19 16 14
19 8 4 4 3 3 3 3 3 2 3 3 2 3 2 3 3 3 3 5 13 16 19 21 23 26 26 25 26 26 23 22 21 19 19 18 14 15 14 13 15 14 14 15 16 17 17 17 18 17 14 16 15 13
4 3 3 2 3 2 2 2 4 2 2 1 2 3 2 3 2 3 3 4 5 9 6 9 15 19 20 18 16 16 16 16 18 19 19 17 16 16 16 16 17 17 14 14 16 16 16 16 15 16 15 12 10 11
2 3 5 6 4 3 4 3 4 4 2 2 4 3 2 2 3 3 1 8 8 13 13 10 5 9 10 11 13 13 12 11 13 14 14 14 15 14 13 11 11 14 14 14 15 14 14 13 14 10 7 8 10 11
1 2 3 5 3 2 2 4 4 3 4 4 2 2 2 3 2 2 4 13 14 15 10 5 3 1 3 5 8 11 11 11 13 14 13 11 11 12 16 15 15 14 13 12 13 15 13 13 10 10 11 11 14 16
2 1 2 5 4 4 2 3 3 4 4 4 2 4 2 2 1 2 6 15 18 13 8 5 3 3 5 6 4 5 4 6 10 11 12 11 10 11 14 18 17 15 13 13 14 13 12 11 16 18 18 17 20 22
2 2 2 3 3 4 6 4 3 3 2 1 3 2 2 2 4 9 14 18 18 11 6 3 5 6 5 4 5 7 9 8 8 12 15 14 10 10 10 11 12 12 11 12 12 13 15 17 20 21 20 21 21 24
3 7 3 2 3 4 7 11 6 9 10 9 5 6 11 13 14 12 17 16 13 10 7 6 5 5 4 3 1 4 5 4 6 8 9 12 9 7 9 8 7 7 9 12 14 14 12 14 15 16 19 22 25 28
2 5 4 5 4 5 8 10 12 15 14 10 11 13 14 12 20 9 6 10 10 8 8 7 7 7 5 3 2 3 4 6 8 6 9 8 9 10 7 5 5 2 2 4 7 10 12 14 18 22 23 23 22 21
5 8 4 2 3 4 9 7 6 8 11 11 13 10 7 5 4 3 6 4 2 5 7 6 4 1 3 2 2 3 5 6 6 12 12 12 12 9 6 5 5 4 4 5 9 13 16 14 10 9 11 13 13 13
7 6 4 4 4 3 3 3 4 4 6 5 7 9 10 7 3 2 5 7 9 11 3 7 8 6 2 2 3 4 6 8 9 11 12 12 10 6 3 1 1 2 6 10 10 8 7 8 10 12 13 13 13 14
Wind_Direction
258 271 281 290 299 307 304 307 310 308 309 321 327 328 313 324 340 330 330 352 8 315 310 330 353 340 349 10 5 345 308 31 66 63 77 90 100 95 102 99 221 187 162 155 150 177 216 158 134 204 72 144 185 191
254 260 272 281 291 296 301 301 306 303 298 297 296 310 301 298 325 328 331 341 342 293 278 312 338 33 7 6 348 3 346 301 79 96 117 126 135 172 169 177 172 202 255 194 224 150 7 179 105 201 180 170 203 197
249 252 261 275 280 287 293 299 297 298 301 296 278 285 294 287 301 313 327 345 342 331 302 308 50 347 27 11 5 324 340 22 76 103 132 109 140 146 182 180 131 163 189 161 208 164 178 198 232 231 215 220 224 210
243 246 252 262 271 278 285 289 286 292 296 288 276 260 277 283 280 289 320 14 18 326 299 249 276 206 299 11 10 336 265 121 101 90 85 94 134 194 192 92 200 110 160 141 186 252 272 240 233 234 233 226 212 206
238 237 244 254 262 271 276 282 277 285 287 276 264 244 260 277 258 264 254 307 13 26 306 299 262 77 157 207 39 98 126 132 122 87 86 115 135 172 116 205 177 187 157 205 270 185 189 150 223 240 243 241 224 208
231 232 235 245 254 265 269 261 263 269 276 263 248 237 245 262 227 246 262 272 303 357 330 295 279 200 154 107 164 138 143 123 111 110 109 128 153 126 175 206 205 191 195 193 179 214 214 270 298 293 252 239 226 217
222 226 228 237 247 256 256 244 259 272 275 252 235 229 233 226 208 192 162 19 323 348 333 297 289 213 184 191 203 162 129 108 84 109 99 121 126 165 188 198 183 204 215 217 209 162 130 309 236 306 287 263 231 219
218 219 221 228 238 245 236 229 244 262 257 230 218 210 222 214 207 219 233 279 306 297 273 284 281 274 177 169 168 163 117 91 44 104 140 182 157 210 234 222 193 188 191 187 180 163 151 152 54 346 310 266 229 221
211 212 216 220 230 233 216 224 235 243 220 197 185 174 175 193 188 202 209 249 263 236 256 205 270 213 175 151 136 122 120 170 235 226 171 208 175 221 224 204 199 204 195 179 173 169 182 188 199 294 310 282 229 231
207 209 210 214 219 217 203 212 220 199 182 177 154 155 178 178 176 195 236 221 195 214 225 243 212 244 184 162 111 143 78 96 226 98 192 232 245 240 237 227 229 235 202 180 167 185 205 210 210 334 297 282 243 233
200 203 202 207 210 204 191 201 199 175 168 156 162 167 157 161 178 201 236 225 186 230 207 226 206 234 203 203 133 125 127 125 234 122 269 234 261 253 235 233 237 207 185 192 192 192 186 175 168 213 62 33 289 252
197 195 194 201 199 189 186 194 184 175 170 168 150 131 150 175 172 205 239 245 220 238 209 196 194 198 208 184 146 169 152 190 232 125 248 244 250 254 168 155 152 165 183 194 203 226 204 187 204 184 147 131 110 230
192 185 190 194 185 180 188 185 174 172 159 152 173 160 170 175 121 202 194 202 225 206 198 181 166 161 172 174 96 148 173 196 140 220 251 248 254 293 175 170 166 160 157 163 225 199 174 191 216 195 182 192 225 227
180 184 182 184 175 178 185 175 175 169 165 174 166 240 216 188 232 203 208 209 227 220 180 177 135 171 172 146 104 199 92 192 217 229 238 265 303 232 174 169 166 175 181 216 194 184 193 210 234 217 215 235 267 291
179 175 173 172 175 176 176 175 176 169 172 181 178 216 221 238 254 246 251 257 243 248 174 149 119 172 121 107 28 123 178 225 227 226 239 311 318 168 169 173 176 179 208 203 207 198 209 239 263 220 223 252 284 284
169 164 171 171 173 170 169 171 171 170 188 208 222 245 226 252 250 237 249 261 254 213 168 161 135 118 136 123 178 201 210 222 220 210 228 343 167 175 183 180 182 193 184 191 180 177 205 245 179 182 205 224 261 280
159 168 168 167 167 161 160 156 147 191 207 218 235 233 241 272 253 260 285 307 185 170 191 157 158 176 127 186 201 196 218 239 224 270 288 258 186 174 175 193 212 190 186 178 175 184 205 215 216 229 244 265 284 290
165 161 162 163 160 154 146 154 171 189 223 224 236 227 224 227 240 244 244 109 168 216 177 193 129 180 200 193 199 209 230 250 274 299 289 211 180 179 186 189 192 208 207 199 200 203 230 259 243 256 286 285 289 299
155 154 154 153 150 134 147 181 187 217 223 237 249 252 249 248 245 244 249 270 286 236 189 177 197 205 206 206 236 258 229 215 214 292 293 192 191 195 193 195 200 206 199 188 198 224 247 248 255 272 286 300 304 311
144 151 150 153 152 134 135 154 184 203 217 219 234 240 235 231 246 248 249 235 230 195 205 210 213 209 215 237 245 262 261 239 256 267 267 239 217 207 209 211 218 217 210 212 217 226 233 248 264 289 303 308 312 329
146 148 159 159 128 109 133 161 176 209 217 231 242 230 249 246 241 236 235 232 213 219 228 225 230 238 239 242 262 255 220 247 261 263 267 268 239 232 233 232 239 231 226 227 227 233 248 269 292 308 313 331 329 326
151 154 150 151 127 147 142 174 175 204 224 246 239 225 246 236 223 219 213 197 228 230 233 239 246 249 247 252 259 260 260 261 264 267 265 267 255 255 259 247 232 236 239 234 232 242 262 279 296 304 307 314 318 308
143 144 147 165 139 145 150 176 203 211 227 221 217 216 219 225 222 185 231 227 243 245 247 250 258 261 260 263 264 262 260 263 263 252 249 255 254 260 254 246 257 253 243 239 237 250 270 286 294 297 304 304 302 304
140 162 176 152 150 180 179 200 212 238 242 236 244 264 205 214 188 221 251 250 256 262 253 254 254 253 256 257 256 258 256 255 258 253 244 251 251 251 259 269 271 253 238 234 238 250 264 277 291 301 315 318 311 309
124 135 148 135 183 169 194 210 191 220 237 207 263 258 214 189 235 228 245 269 311 338 310 262 249 248 250 255 257 249 247 248 247 244 242 240 243 252 259 271 254 225 230 232 241 255 273 285 292 306 319 326 325 316
100 178 178 180 166 197 190 187 201 209 208 235 236 255 224 231 241 237 328 347 15 1 354 357 308 248 250 253 258 258 253 243 237 235 238 235 238 247 249 246 219 223 224 234 251 263 276 282 301 303 309 295 288 291
121 187 210 196 187 192 236 243 251 243 204 220 232 226 224 237 207 108 63 20 5 359 357 345 355 344 307 314 286 265 228 222 229 232 238 245 238 246 233 226 224 227 234 239 248 259 269 283 282 279 277 284 295 301
226 252 222 165 198 217 278 269 231 219 218 213 211 212 235 242 150 116 10 353 346 349 355 349 317 301 291 290 258 212 211 224 223 218 218 215 239 255 227 225 222 223 231 236 248 260 275 272 270 281 290 291 289 289
237 209 193 223 216 218 220 240 239 240 260 251 340 307 332 7 13 293 294 314 323 330 347 354 347 328 316 283 255 234 233 239 234 228 226 219 226 232 220 212 208 223 244 248 252 265 278 286 289 293 297 298 299 297
250 197 216 236 217 229 223 208 229 241 264 271 256 284 292 288 296 287 283 289 297 298 279 295 293 311 316 299 223 199 217 218 221 222 207 206 219 205 191 201 221 236 239 249 262 273 277 288 302 307 307 307 306 305
207 181 217 239 268 260 254 257 254 254 266 262 265 265 273 290 303 305 271 276 277 269 263 272 279 290 287 291 196 199 233 227 208 190 185 173 170 163 175 194 200 176 336 335 329 324 319 313 313 313 314 314 316 316
205 212 232 253 259 278 300 274 256 251 256 252 257 245 244 238 264 275 331 335 238 286 306 272 255 194 167 148 106 102 103 126 163 189 185 172 165 172 193 220 238 260 295 317 325 319 317 325 339 359 9 9 11 15
210 230 232 254 257 264 252 256 249 257 226 231 231 219 211 200 227 312 333 336 330 330 340 165 162 179 226 331 158 120 161 145 136 145 155 166 167 160 132 117 284 321 323 321 329 341 348 354 1 1 1 1 7 13